"Period start","avg(HW err(1)/warn(2) (#))","avg(Visibility (m))","avg(Weather code (#))","avg(Precip intensity (mm/h))","min(HW err(1)/warn(2) (#))","max(HW err(1)/warn(2) (#))","std(HW err(1)/warn(2) (#))","med(HW err(1)/warn(2) (#))","min(Visibility (m))","max(Visibility (m))","std(Visibility (m))","med(Visibility (m))","min(Weather code (#))","max(Weather code (#))","std(Weather code (#))","med(Weather code (#))","min(Precip intensity (mm/h))","max(Precip intensity (mm/h))","std(Precip intensity (mm/h))","med(Precip intensity (mm/h))"
2013-09-04 00:00:00,2,15044,0,0.00,2,2,0,2,13662,18542,1409,15072,0,0,0,0,0.00,0.00,0.00,0.00
2013-09-04 00:10:00,2,17488,0,0.00,2,2,0,2,15035,20512,1857,17427,0,0,0,0,0.00,0.00,0.00,0.00
2013-09-04 00:20:00,2,15948,0,0.00,2,2,0,2,12489,19186,1841,15932,0,0,0,0,0.00,0.00,0.00,0.00
2013-09-04 00:30:00,2,18258,0,0.00,2,2,0,2,14433,22961,2107,18070,0,0,0,0,0.00,0.00,0.00,0.00
2013-09-04 00:40:00,2,16121,0,0.00,2,2,0,2,11668,19765,2365,15684,0,0,0,0,0.00,0.00,0.00,0.00
2013-09-04 00:50:00,2,15074,0,0.00,2,2,0,2,12625,17043,1290,15335,0,0,0,0,0.00,0.00,0.00,0.00
2013-09-04 01:00:00,2,14948,0,0.00,2,2,0,2,12646,16098,1000,15358,0,0,0,0,0.00,0.00,0.00,0.00
2013-09-04 01:10:00,2,16535,0,0.00,2,2,0,2,13205,20396,2087,16182,0,0,0,0,0.00,0.00,0.00,0.00
2013-09-04 01:20:00,2,16982,0,0.00,2,2,0,2,15078,18514,1114,16890,0,0,0,0,0.00,0.00,0.00,0.00
2013-09-04 01:30:00,2,19234,0,0.00,2,2,0,2,16919,21399,1469,19170,0,0,0,0,0.00,0.00,0.00,0.00
2013-09-04 01:40:00,2,19899,0,0.00,2,2,0,2,15499,24815,2684,20756,0,0,0,0,0.00,0.00,0.00,0.00
2013-09-04 01:50:00,2,27055,0,0.00,2,2,0,2,18254,35223,5568,27802,0,0,0,0,0.00,0.00,0.00,0.00
2013-09-04 02:00:00,2,25883,0,0.00,2,2,0,2,20155,37037,4610,25310,0,0,0,0,0.00,0.00,0.00,0.00
2013-09-04 02:10:00,2,30922,0,0.00,2,2,0,2,19665,39928,6049,31898,0,0,0,0,0.00,0.00,0.00,0.00
2013-09-04 02:20:00,2,24338,0,0.00,2,2,0,2,21511,26481,1491,23976,0,0,0,0,0.00,0.00,0.00,0.00
2013-09-04 02:30:00,2,26998,0,0.00,2,2,0,2,19880,37004,4668,26122,0,0,0,0,0.00,0.00,0.00,0.00
2013-09-04 02:40:00,2,23446,0,0.00,2,2,0,2,20347,30445,2929,22426,0,0,0,0,0.00,0.00,0.00,0.00
2013-09-04 02:50:00,2,33004,0,0.00,2,2,0,2,20549,43589,7027,33244,0,0,0,0,0.00,0.00,0.00,0.00
2013-09-04 03:00:00,2,24998,0,0.00,2,2,0,2,20730,30550,3125,24716,0,0,0,0,0.00,0.00,0.00,0.00
2013-09-04 03:10:00,2,33846,0,0.00,2,2,0,2,26987,41189,3597,34208,0,0,0,0,0.00,0.00,0.00,0.00
2013-09-04 03:20:00,2,27874,0,0.00,2,2,0,2,20576,33879,3961,27209,0,0,0,0,0.00,0.00,0.00,0.00
2013-09-04 03:30:00,2,26984,0,0.00,2,2,0,2,22762,33618,2820,27016,0,0,0,0,0.00,0.00,0.00,0.00
2013-09-04 03:40:00,2,28412,0,0.00,2,2,0,2,21528,34607,3504,28236,0,0,0,0,0.00,0.00,0.00,0.00
2013-09-04 03:50:00,2,30065,0,0.00,2,2,0,2,24675,35093,3202,30524,0,0,0,0,0.00,0.00,0.00,0.00
2013-09-04 04:00:00,2,28256,0,0.00,2,2,0,2,19842,38913,5301,28264,0,0,0,0,0.00,0.00,0.00,0.00
2013-09-04 04:10:00,2,28439,0,0.00,2,2,0,2,25023,33327,2557,28262,0,0,0,0,0.00,0.00,0.00,0.00
2013-09-04 04:20:00,2,33198,0,0.00,2,2,0,2,25546,42217,5238,32598,0,0,0,0,0.00,0.00,0.00,0.00
2013-09-04 04:30:00,2,26767,0,0.00,2,2,0,2,23028,32162,2817,26493,0,0,0,0,0.00,0.00,0.00,0.00
2013-09-04 04:40:00,2,24149,0,0.00,2,2,0,2,22034,28551,1803,23636,0,0,0,0,0.00,0.00,0.00,0.00
2013-09-04 04:50:00,2,26551,0,0.00,2,2,0,2,24143,32625,2840,25440,0,0,0,0,0.00,0.00,0.00,0.00
"Period start","avg(HW err(1)/warn(2) (#))","avg(Visibility (m))","avg(Weather code (#))","avg(Precip intensity (mm/h))","min(HW err(1)/warn(2) (#))","max(HW err(1)/warn(2) (#))","std(HW err(1)/warn(2) (#))","med(HW err(1)/warn(2) (#))","min(Visibility (m))","max(Visibility (m))","std(Visibility (m))","med(Visibility (m))","min(Weather code (#))","max(Weather code (#))","std(Weather code (#))","med(Weather code (#))","min(Precip intensity (mm/h))","max(Precip intensity (mm/h))","std(Precip intensity (mm/h))","med(Precip intensity (mm/h))"
2013-09-04 05:10:00,2,29237,0,0.00,2,2,0,2,22928,34757,3921,28760,0,0,0,0,0.00,0.00,0.00,0.00
2013-09-04 05:20:00,2,32647,0,0.00,2,2,0,2,25695,45127,6733,29334,0,0,0,0,0.00,0.00,0.00,0.00
2013-09-04 05:30:00,2,29865,0,0.00,2,2,0,2,26903,33934,2496,29653,0,0,0,0,0.00,0.00,0.00,0.00
2013-09-04 05:40:00,2,30699,0,0.00,2,2,0,2,25845,38557,3434,30775,0,0,0,0,0.00,0.00,0.00,0.00
2013-09-04 05:50:00,2,27354,0,0.00,2,2,0,2,23318,34616,3815,25849,0,0,0,0,0.00,0.00,0.00,0.00
2013-09-04 06:00:00,2,30209,0,0.00,2,2,0,2,24442,35150,3623,30264,0,0,0,0,0.00,0.00,0.00,0.00
2013-09-04 06:10:00,2,33859,0,0.00,2,2,0,2,28438,38998,3706,34987,0,0,0,0,0.00,0.00,0.00,0.00
2013-09-04 06:20:00,2,40328,0,0.00,2,2,0,2,32750,44962,3885,41072,0,0,0,0,0.00,0.00,0.00,0.00
2013-09-04 06:30:00,2,44511,0,0.00,2,2,0,2,38859,49526,3296,44918,0,0,0,0,0.00,0.00,0.00,0.00
2013-09-04 06:40:00,2,38796,0,0.00,2,2,0,2,32812,44436,4069,39632,0,0,0,0,0.00,0.00,0.00,0.00
2013-09-04 06:50:00,2,36906,0,0.00,2,2,0,2,29321,45343,4869,35372,0,0,0,0,0.00,0.00,0.00,0.00
2013-09-04 07:00:00,2,40920,0,0.00,2,2,0,2,31591,44728,3667,42015,0,0,0,0,0.00,0.00,0.00,0.00
2013-09-04 07:10:00,2,41539,0,0.00,2,2,0,2,32792,49058,4770,41892,0,0,0,0,0.00,0.00,0.00,0.00
2013-09-04 07:20:00,2,38721,0,0.00,2,2,0,2,30706,45192,3886,38244,0,0,0,0,0.00,0.00,0.00,0.00
2013-09-04 07:30:00,2,40228,0,0.00,2,2,0,2,33605,47161,4051,40802,0,0,0,0,0.00,0.00,0.00,0.00
2013-09-04 07:40:00,2,44483,0,0.00,2,2,0,2,33310,50000,5764,46910,0,0,0,0,0.00,0.00,0.00,0.00
2013-09-04 07:50:00,2,37468,0,0.00,2,2,0,2,32645,43294,3539,37828,0,0,0,0,0.00,0.00,0.00,0.00
2013-09-04 08:00:00,2,41885,0,0.00,2,2,0,2,31502,45677,4981,44112,0,0,0,0,0.00,0.00,0.00,0.00
2013-09-04 08:10:00,2,44338,0,0.00,2,2,0,2,31695,50000,5351,45052,0,0,0,0,0.00,0.00,0.00,0.00
2013-09-04 08:20:00,2,38665,0,0.00,2,2,0,2,33156,45144,4428,38258,0,0,0,0,0.00,0.00,0.00,0.00
2013-09-04 08:30:00,2,39650,0,0.00,2,2,0,2,29944,47900,4655,39258,0,0,0,0,0.00,0.00,0.00,0.00
2013-09-04 08:40:00,2,41362,0,0.00,2,2,0,2,36688,45450,3013,40384,0,0,0,0,0.00,0.00,0.00,0.00
2013-09-04 08:50:00,2,39813,0,0.00,2,2,0,2,34486,48170,4716,37526,0,0,0,0,0.00,0.00,0.00,0.00
2013-09-04 09:00:00,2,41426,0,0.00,2,2,0,2,34376,47540,3566,42342,0,0,0,0,0.00,0.00,0.00,0.00
2013-09-04 09:10:00,2,40200,0,0.00,2,2,0,2,37556,44578,2124,40153,0,0,0,0,0.00,0.00,0.00,0.00
2013-09-04 09:20:00,2,42998,0,0.00,2,2,0,2,36455,49486,3748,43388,0,0,0,0,0.00,0.00,0.00,0.00
2013-09-04 09:30:00,2,37974,0,0.00,2,2,0,2,31904,44462,3651,38633,0,0,0,0,0.00,0.00,0.00,0.00
2013-09-04 09:40:00,2,40666,0,0.00,2,2,0,2,35675,47967,3872,40956,0,0,0,0,0.00,0.00,0.00,0.00
2013-09-04 09:50:00,2,44533,0,0.00,2,2,0,2,31486,50000,6693,48056,0,0,0,0,0.00,0.00,0.00,0.00
2013-09-04 10:00:00,2,38517,0,0.00,2,2,0,2,32330,47826,5388,35908,0,0,0,0,0.00,0.00,0.00,0.00
2013-09-04 10:10:00,2,33370,0,0.00,2,2,0,2,30217,37798,2578,32796,0,0,0,0,0.00,0.00,0.00,0.00
2013-09-04 10:20:00,2,34968,0,0.00,2,2,0,2,29876,39777,3835,33844,0,0,0,0,0.00,0.00,0.00,0.00
2013-09-04 10:30:00,2,32114,0,0.00,2,2,0,2,29463,36324,2043,31752,0,0,0,0,0.00,0.00,0.00,0.00
2013-09-04 10:40:00,2,33913,0,0.00,2,2,0,2,30740,38724,2791,32821,0,0,0,0,0.00,0.00,0.00,0.00
2013-09-04 10:50:00,2,34865,0,0.00,2,2,0,2,30152,39181,3287,36426,0,0,0,0,0.00,0.00,0.00,0.00
2013-09-04 11:00:00,2,37550,0,0.00,2,2,0,2,31626,43463,3259,36824,0,0,0,0,0.00,0.00,0.00,0.00
2013-09-04 11:10:00,2,27284,0,0.00,2,2,0,2,22528,33337,3866,26535,0,0,0,0,0.00,0.00,0.00,0.00
2013-09-04 11:20:00,2,26943,17,0.07,2,2,0,2,18153,34238,5205,28016,0,61,27,0,0.00,0.35,0.12,0.00
2013-09-04 11:30:00,2,24768,51,0.37,2,2,0,2,20451,29722,3266,25303,51,51,0,51,0.20,0.55,0.13,0.33
2013-09-04 11:40:00,2,18815,52,0.52,2,2,0,2,16866,20871,1113,19014,51,52,0,52,0.25,0.90,0.20,0.45
2013-09-04 11:50:00,2,18374,52,0.92,2,2,0,2,15903,23001,2251,17777,51,61,3,52,0.35,1.75,0.44,0.95
2013-09-04 12:00:00,2,20544,53,0.37,2,2,0,2,18357,25663,2395,19531,51,61,4,52,0.10,0.75,0.21,0.28
2013-09-04 12:10:00,2,21864,51,0.32,2,2,0,2,18286,29611,3296,20564,51,51,0,51,0.00,0.80,0.26,0.28
2013-09-04 12:20:00,2,33059,51,0.53,2,2,0,2,25877,37410,3260,33794,51,51,0,51,0.05,1.85,0.57,0.40
2013-09-04 12:30:00,2,25940,61,0.54,2,2,0,2,23392,28338,1333,25620,61,61,0,61,0.10,1.25,0.35,0.48
2013-09-04 12:40:00,2,26448,61,1.56,2,2,0,2,21284,36592,4372,26060,61,61,0,61,0.45,2.85,0.66,1.65
2013-09-04 12:50:00,2,25032,54,0.31,2,2,0,2,19110,29771,3396,25270,51,61,5,51,0.05,0.75,0.23,0.25
2013-09-04 13:00:00,2,33054,51,0.59,2,2,0,2,25037,38701,4786,33610,51,52,0,51,0.20,1.30,0.42,0.40
2013-09-04 13:10:00,2,27731,52,0.48,2,2,0,2,19706,35326,4542,28338,51,52,0,52,0.25,0.90,0.22,0.42
2013-09-04 13:20:00,2,29086,52,0.40,2,2,0,2,21603,37090,4812,29659,51,52,0,52,0.20,0.50,0.10,0.40
2013-09-04 13:30:00,2,36987,56,0.21,2,2,0,2,31083,44776,3846,36436,51,61,5,56,0.05,1.05,0.29,0.10
2013-09-04 13:40:00,2,36252,51,0.61,2,2,0,2,26905,44399,6298,37244,51,52,0,51,0.25,0.95,0.24,0.55
2013-09-04 13:50:00,2,31266,52,0.64,2,2,0,2,25086,42787,5245,29940,52,52,0,52,0.25,1.05,0.25,0.60
2013-09-04 14:00:00,2,33234,51,0.50,2,2,0,2,28733,37508,3015,32924,51,52,0,51,0.20,0.85,0.24,0.43
2013-09-04 14:10:00,2,31424,52,0.55,2,2,0,2,21921,45523,7306,28797,51,52,0,52,0.20,0.85,0.18,0.55
2013-09-04 14:20:00,2,32655,51,0.34,2,2,0,2,25472,42794,4310,32576,51,52,0,51,0.05,0.85,0.23,0.30
2013-09-04 14:30:00,2,41686,46,0.03,2,2,0,2,28796,49406,7594,45893,0,61,25,61,0.00,0.10,0.03,0.05
2013-09-04 14:40:00,2,37942,33,0.25,2,2,0,2,27849,50000,7460,35360,0,61,27,51,0.00,0.80,0.29,0.12
2013-09-04 14:50:00,2,33413,51,0.61,2,2,0,2,28526,41220,4140,32890,51,51,0,51,0.25,1.60,0.42,0.42
2013-09-04 15:00:00,2,35531,51,0.38,2,2,0,2,28582,40857,3788,34946,51,51,0,51,0.15,0.65,0.15,0.38
2013-09-04 15:10:00,2,33799,52,0.41,2,2,0,2,28957,40018,3397,33728,51,61,3,51,0.25,0.75,0.16,0.38
2013-09-04 15:20:00,2,32024,57,0.59,2,2,0,2,27953,35207,2193,32736,51,61,5,61,0.15,1.00,0.26,0.62
2013-09-04 15:30:00,2,31591,51,0.20,2,2,0,2,25910,36277,3547,32378,51,51,0,51,0.10,0.35,0.08,0.15
2013-09-04 15:40:00,2,24080,51,0.11,2,2,0,2,20724,30128,2451,23665,51,51,0,51,0.00,0.45,0.12,0.10
2013-09-04 15:50:00,2,19492,51,0.43,2,2,0,2,17695,22898,1853,18577,51,51,0,51,0.30,0.60,0.10,0.42
2013-09-04 16:00:00,2,14982,51,0.46,2,2,0,2,13559,16692,1206,14559,51,51,0,51,0.20,0.95,0.24,0.38
2013-09-04 16:10:00,2,14323,51,0.38,2,2,0,2,12466,16003,1052,14190,51,51,0,51,0.20,0.80,0.17,0.30
2013-09-04 16:20:00,2,13950,58,0.14,2,2,0,2,12752,15124,713,14024,51,61,5,61,0.05,0.20,0.05,0.15
2013-09-04 16:30:00,2,14107,51,0.16,2,2,0,2,12435,15833,1040,14076,51,51,0,51,0.10,0.25,0.05,0.15
2013-09-04 16:40:00,2,13175,51,0.17,2,2,0,2,11730,15034,949,12880,51,51,0,51,0.10,0.30,0.06,0.15
2013-09-04 16:50:00,2,11690,51,0.22,2,2,0,2,9878,14046,1145,11660,51,51,0,51,0.15,0.35,0.06,0.23
2013-09-04 17:00:00,2,10504,51,0.53,2,2,0,2,7890,13742,2120,10058,51,51,0,51,0.30,0.85,0.19,0.48
2013-09-04 17:10:00,2,9323,57,0.79,2,2,0,2,8282,10312,747,9386,52,61,4,61,0.45,1.15,0.21,0.78
2013-09-04 17:20:00,2,9676,56,1.83,2,2,0,2,8101,11170,895,9580,52,61,4,56,1.10,3.10,0.72,1.40
2013-09-04 17:30:00,2,9701,52,1.59,2,2,0,2,8849,10668,711,9830,52,52,0,52,0.90,2.95,0.54,1.38
2013-09-04 17:40:00,2,9194,52,2.52,2,2,0,2,8136,10909,865,9200,52,52,0,52,0.95,4.05,0.94,2.40
2013-09-04 17:50:00,2,10283,61,3.66,2,2,0,2,9708,11069,385,10215,61,61,0,61,2.15,4.90,0.80,3.78
2013-09-04 18:00:00,2,9039,61,3.99,2,2,0,2,7144,10344,770,9224,61,61,0,61,2.70,5.80,0.96,3.72
2013-09-04 18:10:00,2,7436,61,4.34,2,2,0,2,6528,8384,561,7276,61,61,0,61,3.45,4.85,0.35,4.43
2013-09-04 18:20:00,2,7855,61,4.00,2,2,0,2,6962,8903,604,7664,61,61,0,61,2.70,6.15,1.11,3.80
2013-09-04 18:30:00,2,8405,61,3.45,2,2,0,2,7616,9525,578,8446,61,61,0,61,2.75,4.85,0.61,3.38
2013-09-04 18:40:00,2,8280,61,2.21,2,2,0,2,7453,9060,483,8223,61,61,0,61,1.50,3.50,0.64,2.08
2013-09-04 18:50:00,2,8099,61,3.33,2,2,0,2,7337,9282,661,7952,61,61,0,61,0.95,4.10,0.94,3.67
2013-09-04 19:00:00,2,10100,61,3.33,2,2,0,2,8963,11343,702,9854,61,61,0,61,1.95,6.65,1.31,2.92
2013-09-04 19:10:00,2,9842,61,3.80,2,2,0,2,9237,10372,425,9845,61,61,0,61,2.40,8.70,1.74,3.28
2013-09-04 19:20:00,2,8842,61,3.97,2,2,0,2,7568,9238,465,8980,61,61,0,61,2.75,9.90,2.08,3.17
2013-09-04 19:30:00,2,6847,62,11.00,2,2,0,2,5497,7824,650,6882,61,62,0,62,5.50,20.25,4.08,10.78
2013-09-04 19:40:00,2,6168,62,13.22,2,2,0,2,5579,7293,467,6061,61,62,0,62,7.00,19.75,4.19,12.32
2013-09-04 19:50:00,2,6343,62,12.48,2,2,0,2,5854,7369,439,6208,61,62,0,62,7.50,18.45,3.02,11.70
2013-09-04 20:00:00,2,6142,62,11.93,2,2,0,2,4775,6689,535,6348,61,62,0,62,6.60,24.70,4.90,11.07
2013-09-04 20:10:00,2,5948,62,12.95,2,2,0,2,5437,6400,312,6008,61,62,0,62,6.70,21.35,4.96,10.80
2013-09-04 20:20:00,2,7108,61,8.73,2,2,0,2,6454,8230,593,6966,61,62,0,61,5.35,14.10,2.83,8.45
2013-09-04 20:30:00,2,9236,61,2.86,2,2,0,2,8465,10170,461,9156,61,61,0,61,0.80,8.55,2.36,2.10
2013-09-04 20:40:00,2,9817,61,3.13,2,2,0,2,7872,11374,1172,10028,61,61,0,61,1.35,8.00,1.78,2.90
2013-09-04 20:50:00,2,9630,61,1.34,2,2,0,2,8074,10672,952,9876,61,61,0,61,0.70,2.50,0.51,1.27
2013-09-04 21:00:00,2,10350,55,1.53,2,2,0,2,7831,11421,1029,10748,52,61,4,52,0.45,5.30,1.31,1.05
2013-09-04 21:10:00,2,9580,61,4.30,2,2,0,2,8402,10359,694,9538,61,62,0,61,1.60,10.65,2.95,2.95
2013-09-04 21:20:00,2,10143,60,4.26,2,2,0,2,7843,11652,1131,9916,52,62,3,61,1.25,14.15,3.59,3.15
2013-09-04 21:30:00,2,12807,52,0.68,2,2,0,2,11822,14344,694,12920,52,52,0,52,0.35,0.95,0.19,0.68
2013-09-04 21:40:00,2,12433,52,1.50,2,2,0,2,11651,14165,649,12261,52,52,0,52,0.55,3.10,0.85,1.00
2013-09-04 21:50:00,2,13478,61,2.38,2,2,0,2,11579,15074,1270,13944,61,61,0,61,0.30,7.00,2.12,1.45
2013-09-04 22:00:00,2,13017,56,1.88,2,2,0,2,10845,15265,1492,13370,52,61,4,56,0.90,5.90,1.45,1.25
2013-09-04 22:10:00,2,12294,58,1.94,2,2,0,2,9679,14207,1395,12954,52,61,4,61,1.00,3.85,0.86,1.77
2013-09-04 22:20:00,2,12641,56,2.52,2,2,0,2,9138,15212,1963,13212,52,61,4,52,1.05,7.15,1.76,1.60
2013-09-04 22:30:00,2,11566,60,2.94,2,2,0,2,9516,13525,1194,11496,52,61,3,61,0.60,5.95,1.76,2.50
2013-09-04 22:40:00,2,11363,52,1.84,2,2,0,2,10224,13443,904,11374,52,52,0,52,0.90,3.80,0.94,1.45
2013-09-04 22:50:00,2,8054,60,5.41,2,2,0,2,3393,12266,3244,8592,52,61,3,61,2.80,8.95,2.27,5.30
2013-09-04 23:00:00,2,5110,61,4.79,2,2,0,2,4309,6004,557,5053,61,61,0,61,1.90,7.40,1.59,4.90
2013-09-04 23:10:00,2,9602,56,2.12,2,2,0,2,5688,12436,2709,10593,52,61,4,56,1.15,3.15,0.56,2.12
2013-09-04 23:20:00,2,13530,53,2.31,2,2,0,2,11315,15300,1280,13488,52,61,3,52,1.60,3.35,0.53,2.30
2013-09-04 23:30:00,2,14970,52,2.19,2,2,0,2,12032,17983,1823,15706,52,52,0,52,1.25,3.45,0.67,2.00
2013-09-04 23:40:00,2,9321,59,7.01,2,2,0,2,6122,12589,1671,9192,52,62,4,61,3.55,10.20,2.25,7.70
2013-09-04 23:50:00,2,4213,61,8.90,2,2,0,2,3232,5955,831,3918,61,62,0,61,2.50,17.10,4.58,8.38
